TimePDT,TemperatureF,Dew PointF,Humidity,Sea Level PressureIn,VisibilityMPH,Wind Direction,Wind SpeedMPH,Gust SpeedMPH,PrecipitationIn,Events,Conditions,WindDirDegrees,DateUTC
12:15 AM,44.6,39.2,81,30.46,10.0,North,-9999.0,-,N/A,,Overcast,0,2013-03-10 08:15:00
12:35 AM,42.8,39.2,87,30.46,10.0,Calm,Calm,-,N/A,,Mostly Cloudy,0,2013-03-10 08:35:00
12:55 AM,41.0,39.2,93,30.46,10.0,Calm,Calm,-,N/A,,Overcast,0,2013-03-10 08:55:00
1:15 AM,41.0,39.2,93,30.46,10.0,Calm,Calm,-,N/A,,Overcast,0,2013-03-10 09:15:00
1:35 AM,42.8,39.2,87,30.46,10.0,Calm,Calm,-,N/A,,Overcast,0,2013-03-10 09:35:00
1:55 AM,42.8,39.2,87,30.47,10.0,Calm,Calm,-,N/A,,Mostly Cloudy,0,2013-03-10 09:55:00
3:15 AM,42.8,39.2,87,30.47,10.0,Calm,Calm,-,N/A,,Scattered Clouds,0,2013-03-10 10:15:00
3:35 AM,42.8,41.0,93,30.46,10.0,North,-9999.0,-,N/A,,Scattered Clouds,0,2013-03-10 10:35:00
3:55 AM,42.8,41.0,93,30.46,10.0,North,-9999.0,-,N/A,,Partly Cloudy,0,2013-03-10 10:55:00
4:15 AM,42.8,41.0,93,30.45,10.0,Calm,Calm,-,N/A,,Mostly Cloudy,0,2013-03-10 11:15:00
4:35 AM,42.8,41.0,93,30.45,10.0,North,-9999.0,-,N/A,,Overcast,0,2013-03-10 11:35:00
4:55 AM,42.8,41.0,93,30.46,10.0,South,3.5,-,N/A,,Mostly Cloudy,180,2013-03-10 11:55:00
5:15 AM,42.8,39.2,87,30.46,10.0,North,-9999.0,-,N/A,,Partly Cloudy,0,2013-03-10 12:15:00
5:35 AM,42.8,41.0,93,30.47,10.0,North,-9999.0,-,N/A,,Partly Cloudy,0,2013-03-10 12:35:00
6:15 AM,42.8,41.0,93,30.45,10.0,North,-9999.0,-,N/A,,Mostly Cloudy,0,2013-03-10 13:15:00
6:35 AM,42.8,41.0,93,30.45,10.0,South,8.1,-,N/A,,Overcast,190,2013-03-10 13:35:00
6:55 AM,42.8,39.2,87,30.44,10.0,South,8.1,-,N/A,,Overcast,190,2013-03-10 13:55:00
7:15 AM,42.8,39.2,87,30.43,10.0,South,6.9,-,N/A,,Mostly Cloudy,190,2013-03-10 14:15:00
7:35 AM,42.8,39.2,87,30.44,10.0,SSW,5.8,-,N/A,,Clear,200,2013-03-10 14:35:00
7:55 AM,42.8,39.2,87,30.43,10.0,South,5.8,-,N/A,,Scattered Clouds,190,2013-03-10 14:55:00
8:15 AM,42.8,41.0,93,30.44,10.0,SSW,8.1,-,N/A,,Mostly Cloudy,200,2013-03-10 15:15:00
8:35 AM,44.6,39.2,81,30.44,10.0,South,8.1,-,N/A,,Partly Cloudy,190,2013-03-10 15:35:00
8:55 AM,44.6,39.2,81,30.44,10.0,SSW,8.1,-,N/A,,Clear,200,2013-03-10 15:55:00
9:15 AM,44.6,41.0,87,30.44,10.0,South,5.8,-,N/A,,Partly Cloudy,190,2013-03-10 16:15:00
9:35 AM,44.6,41.0,87,30.45,10.0,SSW,8.1,-,N/A,,Mostly Cloudy,200,2013-03-10 16:35:00
9:55 AM,44.6,41.0,87,30.45,8.0,South,6.9,-,N/A,,Mostly Cloudy,190,2013-03-10 16:55:00
10:15 AM,44.6,41.0,87,30.45,7.0,SSW,8.1,-,N/A,Rain,Light Rain,200,2013-03-10 17:15:00
10:35 AM,44.6,41.0,87,30.45,7.0,SSW,8.1,-,N/A,Rain,Light Rain,200,2013-03-10 17:35:00
11:15 AM,44.6,41.0,87,30.45,10.0,SSW,6.9,-,N/A,,Overcast,200,2013-03-10 18:15:00
11:35 AM,44.6,41.0,87,30.44,10.0,South,5.8,-,N/A,,Overcast,180,2013-03-10 18:35:00
11:55 AM,44.6,39.2,81,30.44,10.0,South,3.5,-,N/A,,Overcast,170,2013-03-10 18:55:00
12:15 PM,44.6,39.2,81,30.44,10.0,South,4.6,-,N/A,,Overcast,190,2013-03-10 19:15:00
12:35 PM,44.6,39.2,81,30.44,10.0,Calm,Calm,-,N/A,,Overcast,0,2013-03-10 19:35:00
12:55 PM,44.6,39.2,81,30.44,10.0,SSW,5.8,-,N/A,,Overcast,200,2013-03-10 19:55:00
1:15 PM,46.4,39.2,76,30.44,10.0,South,5.8,-,N/A,,Overcast,180,2013-03-10 20:15:00
1:35 PM,46.4,39.2,76,30.44,10.0,Calm,Calm,-,N/A,,Overcast,0,2013-03-10 20:35:00
1:55 PM,46.4,39.2,76,30.43,10.0,South,5.8,-,N/A,,Overcast,180,2013-03-10 20:55:00
2:15 PM,44.6,39.2,81,30.43,10.0,South,3.5,-,N/A,,Overcast,180,2013-03-10 21:15:00
2:35 PM,44.6,39.2,81,30.43,10.0,Calm,Calm,-,N/A,,Overcast,0,2013-03-10 21:35:00
2:55 PM,44.6,39.2,81,30.42,10.0,SSE,4.6,-,N/A,,Overcast,160,2013-03-10 21:55:00
3:15 PM,44.6,39.2,81,30.42,10.0,South,3.5,-,N/A,,Overcast,180,2013-03-10 22:15:00
3:35 PM,44.6,39.2,81,30.42,10.0,South,3.5,-,N/A,,Overcast,170,2013-03-10 22:35:00
3:55 PM,46.4,39.2,76,30.42,10.0,South,3.5,-,N/A,,Mostly Cloudy,180,2013-03-10 22:55:00
4:15 PM,44.6,39.2,81,30.43,8.0,Calm,Calm,-,N/A,,Mostly Cloudy,0,2013-03-10 23:15:00
4:35 PM,44.6,39.2,81,30.42,10.0,South,6.9,-,N/A,,Mostly Cloudy,190,2013-03-10 23:35:00
4:55 PM,44.6,39.2,81,30.42,10.0,South,4.6,-,N/A,,Overcast,180,2013-03-10 23:55:00
5:15 PM,44.6,39.2,81,30.42,10.0,South,4.6,-,N/A,,Overcast,180,2013-03-11 00:15:00
5:35 PM,44.6,39.2,81,30.41,10.0,South,4.6,-,N/A,,Overcast,170,2013-03-11 00:35:00
5:55 PM,44.6,41.0,87,30.41,10.0,South,4.6,-,N/A,,Overcast,180,2013-03-11 00:55:00
6:15 PM,44.6,41.0,87,30.41,10.0,South,4.6,-,N/A,,Overcast,170,2013-03-11 01:15:00
6:35 PM,44.6,41.0,87,30.41,10.0,South,4.6,-,N/A,,Overcast,170,2013-03-11 01:35:00
7:15 PM,44.6,39.2,81,30.42,10.0,South,3.5,-,N/A,,Mostly Cloudy,170,2013-03-11 02:15:00
7:35 PM,42.8,39.2,87,30.42,10.0,South,3.5,-,N/A,,Scattered Clouds,180,2013-03-11 02:35:00
7:55 PM,42.8,39.2,87,30.41,10.0,South,5.8,-,N/A,,Partly Cloudy,180,2013-03-11 02:55:00
8:15 PM,42.8,39.2,87,30.41,10.0,South,3.5,-,N/A,,Mostly Cloudy,190,2013-03-11 03:15:00
8:35 PM,42.8,39.2,87,30.41,10.0,South,5.8,-,N/A,,Scattered Clouds,190,2013-03-11 03:35:00
8:55 PM,42.8,39.2,87,30.41,10.0,South,4.6,-,N/A,,Mostly Cloudy,180,2013-03-11 03:55:00
9:15 PM,42.8,39.2,87,30.42,10.0,South,8.1,-,N/A,,Mostly Cloudy,190,2013-03-11 04:15:00
9:35 PM,42.8,39.2,87,30.42,10.0,South,6.9,-,N/A,,Scattered Clouds,190,2013-03-11 04:35:00
9:55 PM,42.8,39.2,87,30.41,10.0,South,6.9,-,N/A,,Clear,190,2013-03-11 04:55:00
10:15 PM,41.0,39.2,93,30.41,10.0,South,8.1,-,N/A,,Clear,190,2013-03-11 05:15:00
10:35 PM,41.0,39.2,93,30.41,10.0,South,4.6,-,N/A,,Clear,170,2013-03-11 05:35:00
10:55 PM,41.0,39.2,93,30.41,10.0,South,8.1,-,N/A,,Clear,180,2013-03-11 05:55:00
11:15 PM,41.0,39.2,93,30.41,10.0,South,5.8,-,N/A,,Clear,180,2013-03-11 06:15:00
11:35 PM,41.0,39.2,93,30.42,10.0,South,9.2,-,N/A,,Partly Cloudy,190,2013-03-11 06:35:00
11:55 PM,41.0,39.2,93,30.42,10.0,South,8.1,-,N/A,,Clear,190,2013-03-11 06:55:00
12:15 AM,41.0,39.2,93,30.42,10.0,South,5.8,-,N/A,,Clear,170,2013-03-11 07:15:00
12:35 AM,41.0,39.2,93,30.42,10.0,South,3.5,-,N/A,,Clear,170,2013-03-11 07:35:00
12:55 AM,41.0,39.2,93,30.42,10.0,SSE,3.5,-,N/A,,Partly Cloudy,160,2013-03-11 07:55:00